[[{"header":{"parameterUnit":"m.s-1","parameterCategory":1,"la1":30.2991,"la2":30.254,"lo1":-89.0895,"lo2":-89.0444,"dy":0.0017,"dx":0.0017,"nx":28,"ny":28,"refTime":"2025-07-13T09:00:00:Z","depth":0,"parameterNumber":2,"parameterNumberName":"U-component_of_WINDS"},"data":[0,0,0,0,0,0,0,0,0,0,0,0,0,0,0,0,0,0,0,0,0,0,0,0,0,0,0,0,0,0,0,0,0,0,0,0,0,0,0,0,0,0,0,0,0,0,0,0,0,0,0,0,0,0,0,0,0,0,1.599,1.5991,0,1.6046,1.6046,1.6047,1.6075,1.6075,1.6075,1.6075,1.6132,1.6133,1.6135,0,0,0,0,0,0,0,0,0,0,0,0,0,1.5909,1.5911,1.599,1.5991,1.5991,1.6045,1.6046,1.6047,1.6075,1.6075,1.6075,1.6075,1.6131,1.6133,1.6135,0,0,0,0,0,0,0,0,0,0,0,0,0,1.5952,1.5911,1.599,1.6012,1.6014,1.6045,1.6046,1.6047,1.6075,1.6075,1.6075,1.6075,1.6131,1.6133,1.6135,1.6149,0,0,1.6142,1.6143,0,0,0,0,0,0,0,0,1.595,1.5955,1.6008,1.601,1.6013,1.6053,1.6039,1.6081,1.6075,1.6052,1.6075,1.6075,1.6106,1.611,1.612,1.6151,1.6154,1.6142,1.6144,1.6145,1.6145,0,0,0,0,0,0,0,1.5947,1.5953,1.6012,1.6009,1.6012,1.6019,1.6025,1.6047,1.6078,1.6054,1.6056,1.6062,1.6107,1.6118,1.6122,1.6154,1.6142,1.6144,1.6146,1.6147,1.62,1.62,0,0,0,0,0,0,1.594,1.5951,1.601,1.6014,1.5981,1.6021,1.6028,1.604,1.6078,1.6084,1.6062,1.6063,1.6114,1.6119,1.6124,1.6143,1.6145,1.6147,1.6148,1.62,1.62,1.62,0,0,0,0,0,0,1.5939,1.5945,1.6008,1.5983,1.5991,1.6022,1.6036,1.6042,1.6053,1.6084,1.609,1.6068,1.6115,1.6121,1.6142,1.6145,1.6148,1.615,1.62,1.62,1.62,1.6179,0,0,0,0,0,0,1.5936,1.5945,1.595,1.5983,1.5993,1.6025,1.6036,1.6043,1.6056,1.6058,1.6091,1.6096,1.6115,1.6139,1.6145,1.6148,1.6152,1.62,1.62,1.62,1.618,1.6179,1.6178,0,0,0,0,0,1.5933,1.5942,1.595,1.5957,1.6,1.6025,1.6031,1.6052,1.6056,1.6062,1.6082,1.6095,1.6144,1.6141,1.6148,1.6152,1.6199,1.62,1.62,1.618,1.6179,1.6178,0,0,0,0,0,0,1.5908,1.5946,1.5956,1.5975,1.5997,1.603,1.6038,1.605,1.6071,1.6072,1.6098,1.6105,1.6124,1.614,1.6136,1.6167,1.6173,1.6174,1.6156,1.6155,1.6154,1.6149,1.6153,0,0,0,0,0,1.5905,1.5922,1.5955,1.5969,1.5979,1.6006,1.6018,1.6033,1.6057,1.6066,1.6088,1.611,1.6131,1.6144,1.6164,1.6182,1.619,1.6189,1.6187,1.6186,1.6187,1.6199,1.6199,1.62,1.62,1.62,0,0,1.5898,1.5921,1.5931,1.5964,1.5983,1.6001,1.6014,1.6032,1.6046,1.6069,1.6091,1.6107,1.6134,1.6154,1.6164,1.6168,1.6189,1.6187,1.6185,1.6187,1.6199,1.6199,1.6199,1.62,1.62,1.62,0,0,1.5895,1.5914,1.5929,1.5947,1.5975,1.5993,1.5996,1.6028,1.604,1.6062,1.608,1.6097,1.6131,1.615,1.6163,1.6168,1.6181,1.6174,1.6169,1.6179,1.6179,1.6179,1.6181,1.6182,1.6175,1.6175,1.6175,0,1.5884,1.5911,1.5934,1.5952,1.5966,1.5988,1.6003,1.6019,1.6052,1.6062,1.6066,1.611,1.6129,1.6154,1.6156,1.6166,1.6171,1.6171,1.6177,1.6178,1.6178,1.618,1.6181,1.6174,1.6174,1.6174,1.6175,0,1.5896,1.5915,1.5923,1.5954,1.597,1.5985,1.6011,1.6024,1.6038,1.6056,1.6078,1.6102,1.6129,1.6136,1.6149,1.6163,1.6164,1.6172,1.6179,1.6177,1.6179,1.618,1.6173,1.6173,1.6173,1.6174,0,0,1.5878,1.5923,1.5925,1.594,1.5973,1.5988,1.6005,1.6031,1.6042,1.6064,1.6079,1.6108,1.6116,1.6132,1.6147,1.6157,1.616,1.6164,1.6165,1.6163,1.6177,1.6171,1.6172,1.6169,1.6169,1.6169,1.6175,0,1.588,1.5912,1.5933,1.5957,1.5975,1.5996,1.6011,1.6033,1.605,1.6068,1.6088,1.6108,1.6116,1.6126,1.6137,1.6157,1.6163,1.6157,1.6183,1.6184,1.6176,1.6173,1.6166,1.6171,1.6176,1.6176,1.6177,0,1.5887,1.5909,1.5934,1.5965,1.5973,1.5986,1.6012,1.6029,1.6054,1.6066,1.6084,1.61,1.612,1.6125,1.6152,1.6147,1.6159,1.6171,1.6172,1.6175,1.618,1.6176,1.6173,1.6173,1.6178,1.6178,1.6178,0,1.5872,1.5908,1.5928,1.594,1.5976,1.5985,1.6001,1.6027,1.6041,1.6063,1.6073,1.6097,1.611,1.6129,1.6151,1.6153,1.6177,1.6183,1.6187,1.6187,1.6192,1.6191,1.619,1.6199,1.6199,1.6199,1.6199,0,1.5872,1.5887,1.5922,1.5934,1.5951,1.5976,1.5992,1.601,1.6032,1.6049,1.6068,1.6083,1.6112,1.6131,1.6148,1.6169,1.6174,1.6185,1.619,1.6183,1.6182,1.6192,1.6192,1.6199,1.6199,1.6199,1.6199,0,1.5858,1.5882,1.5905,1.5939,1.5947,1.5959,1.5987,1.6,1.6019,1.6039,1.6045,1.6074,1.6097,1.6122,1.6153,1.6165,1.6184,1.6191,1.6176,1.6178,1.6181,1.6181,1.6186,1.6189,1.6196,1.6196,1.6196,0,1.5857,1.5869,1.5903,1.5916,1.5931,1.5951,1.5965,1.599,1.6005,1.6035,1.6044,1.6069,1.609,1.6125,1.615,1.6174,1.6181,1.6181,1.6185,1.6178,1.6181,1.618,1.6182,1.618,1.618,1.618,1.618,0,1.5852,1.5863,1.5884,1.5908,1.5925,1.5946,1.5968,1.5977,1.6006,1.6021,1.6045,1.6061,1.6093,1.6117,1.6144,1.6161,1.6175,1.6178,1.6181,1.6174,1.6165,1.6171,1.6173,1.6178,1.6178,1.6178,1.6178,1.6179,1.5845,1.5856,1.5883,1.5905,1.5924,1.5943,1.5957,1.5978,1.5998,1.6026,1.604,1.6063,1.6089,1.6127,1.6144,1.6163,1.6167,1.617,1.6171,1.6172,1.617,1.6162,1.6168,1.6168,1.6168,1.6168,1.6168,0,1.5841,1.5859,1.5879,1.5909,1.5926,1.5938,1.5963,1.5977,1.5998,1.602,1.6041,1.6068,1.6092,1.6118,1.6144,1.6154,1.6161,1.616,1.6159,1.6163,1.6165,1.616,1.6154,1.6154,1.6154,1.6154,1.6154,1.6154,1.5841,1.5861,1.5876,1.5906,1.5925,1.5948,1.5961,1.598,1.5998,1.6028,1.6048,1.6065,1.6089,1.6117,1.6139,1.6146,1.6155,1.6152,1.6161,1.6162,1.6163,1.6164,1.616,1.6153,1.6153,1.6158,1.6158,1.6158]},{"header":{"parameterUnit":"m.s-1","parameterCategory":1,"la1":30.2991,"la2":30.254,"lo1":-89.0895,"lo2":-89.0444,"dy":0.0017,"dx":0.0017,"nx":28,"ny":28,"refTime":"2025-07-13T09:00:00:Z","depth":0,"parameterNumber":3,"parameterNumberName":"V-component_of_WINDS"},"data":[0,0,0,0,0,0,0,0,0,0,0,0,0,0,0,0,0,0,0,0,0,0,0,0,0,0,0,0,0,0,0,0,0,0,0,0,0,0,0,0,0,0,0,0,0,0,0,0,0,0,0,0,0,0,0,0,0,0,0.5746,0.5745,0,0.5713,0.5712,0.5712,0.5689,0.5689,0.5689,0.5688,0.5655,0.5654,0.5653,0,0,0,0,0,0,0,0,0,0,0,0,0,0.5789,0.5788,0.5746,0.5745,0.5745,0.5713,0.5712,0.5712,0.5689,0.5689,0.5688,0.5688,0.5655,0.5654,0.5653,0,0,0,0,0,0,0,0,0,0,0,0,0,0.5764,0.5788,0.5746,0.573,0.5728,0.5713,0.5712,0.5712,0.5689,0.5689,0.5688,0.5688,0.5655,0.5654,0.5653,0.5652,0,0,0.565,0.5649,0,0,0,0,0,0,0,0,0.5766,0.5763,0.5732,0.5731,0.5729,0.5705,0.5715,0.5692,0.5689,0.5704,0.5688,0.5688,0.5672,0.5669,0.5663,0.565,0.5649,0.565,0.5649,0.5648,0.5648,0,0,0,0,0,0,0,0.5767,0.5764,0.5733,0.5732,0.573,0.5724,0.572,0.5711,0.569,0.5702,0.5701,0.5697,0.567,0.5665,0.5663,0.5648,0.565,0.5649,0.5648,0.5648,0.5631,0.5632,0,0,0,0,0,0,0.5772,0.5766,0.5734,0.5732,0.5747,0.5723,0.5719,0.5713,0.569,0.5686,0.5697,0.5696,0.5667,0.5664,0.5661,0.5658,0.5648,0.5647,0.5647,0.5631,0.5631,0.5632,0,0,0,0,0,0,0.5773,0.5769,0.5735,0.5748,0.5743,0.5723,0.5716,0.5712,0.5706,0.5686,0.5682,0.5695,0.5666,0.5663,0.5654,0.5656,0.5647,0.5646,0.5631,0.5631,0.5632,0.5651,0,0,0,0,0,0,0.5774,0.577,0.5769,0.5748,0.5743,0.5729,0.5716,0.5712,0.5704,0.5702,0.5683,0.5679,0.5666,0.5656,0.5653,0.5654,0.5645,0.5631,0.5631,0.5631,0.565,0.5652,0.5653,0,0,0,0,0,0.5776,0.5776,0.5769,0.5765,0.5741,0.5729,0.5726,0.571,0.5705,0.5704,0.569,0.568,0.5656,0.5655,0.5652,0.5653,0.563,0.5631,0.5631,0.5649,0.5651,0.5653,0,0,0,0,0,0,0.5797,0.5773,0.5765,0.5758,0.5746,0.5725,0.5723,0.5713,0.5702,0.57,0.5682,0.5678,0.5671,0.5661,0.566,0.565,0.5642,0.5642,0.5657,0.5659,0.566,0.5663,0.5644,0,0,0,0,0,0.5801,0.5793,0.5772,0.5768,0.5762,0.5744,0.5738,0.5727,0.5713,0.5708,0.5694,0.5681,0.567,0.5664,0.5653,0.5648,0.5644,0.5647,0.5649,0.5651,0.5651,0.5647,0.5648,0.5633,0.5633,0.5633,0,0,0.5809,0.5795,0.5791,0.5772,0.5761,0.5753,0.574,0.5731,0.5725,0.5706,0.5697,0.5687,0.5671,0.5664,0.566,0.5656,0.5654,0.5651,0.5653,0.5652,0.5648,0.5649,0.565,0.5634,0.5634,0.5634,0,0,0.5819,0.5808,0.5803,0.5793,0.5776,0.5764,0.5763,0.5743,0.5735,0.5726,0.5712,0.5704,0.5687,0.5676,0.5668,0.5674,0.5664,0.5671,0.568,0.5677,0.5678,0.5679,0.5681,0.5681,0.5671,0.5671,0.5671,0,0.5832,0.5819,0.5802,0.5795,0.5787,0.577,0.5765,0.5755,0.5736,0.5731,0.5726,0.5704,0.5692,0.5682,0.5683,0.5678,0.5676,0.5673,0.5679,0.568,0.568,0.5682,0.5683,0.5672,0.5672,0.5672,0.5672,0,0.5834,0.5825,0.5823,0.5805,0.5797,0.5791,0.5774,0.5767,0.5757,0.5746,0.5736,0.5721,0.5707,0.5704,0.5694,0.5693,0.569,0.5683,0.5674,0.5683,0.5684,0.5685,0.5674,0.5674,0.5673,0.5673,0,0,0.5857,0.583,0.5829,0.5821,0.5801,0.5794,0.5787,0.5773,0.5768,0.5755,0.5749,0.5734,0.5727,0.5718,0.5707,0.5704,0.5709,0.5697,0.5696,0.5699,0.5706,0.5712,0.5713,0.5702,0.5703,0.5703,0.5707,0,0.5864,0.585,0.5835,0.5827,0.5818,0.5802,0.5796,0.5783,0.5772,0.5763,0.5751,0.5741,0.5732,0.5726,0.5723,0.571,0.571,0.5709,0.5696,0.5696,0.57,0.5713,0.5719,0.5724,0.5708,0.5708,0.5708,0,0.587,0.5858,0.5849,0.583,0.5826,0.582,0.5806,0.5798,0.5783,0.5775,0.5766,0.5754,0.5745,0.5738,0.5726,0.5726,0.5719,0.5712,0.5712,0.571,0.5702,0.5711,0.5726,0.5726,0.5708,0.5708,0.5708,0,0.5887,0.5869,0.5861,0.5854,0.5832,0.5828,0.5819,0.5804,0.5796,0.5784,0.5779,0.5766,0.5759,0.5749,0.5734,0.573,0.5723,0.5715,0.5716,0.5717,0.5715,0.5716,0.5729,0.5712,0.5712,0.5712,0.5712,0,0.5896,0.5891,0.5868,0.5863,0.5857,0.584,0.5834,0.5823,0.581,0.5802,0.5787,0.5781,0.5761,0.5752,0.574,0.5732,0.5729,0.5722,0.5719,0.5723,0.5724,0.5718,0.5718,0.5712,0.5712,0.5712,0.5712,0,0.5913,0.5898,0.5888,0.5868,0.5863,0.5859,0.5841,0.5836,0.5824,0.5815,0.5812,0.5793,0.5781,0.5765,0.5749,0.5741,0.5734,0.5729,0.5739,0.5737,0.5739,0.5739,0.5749,0.5749,0.5733,0.5733,0.5733,0,0.592,0.5916,0.5895,0.5889,0.588,0.587,0.5863,0.5846,0.5838,0.5821,0.5818,0.5805,0.5794,0.5777,0.5761,0.5749,0.5743,0.5748,0.5741,0.5746,0.5743,0.5743,0.5742,0.5749,0.5749,0.575,0.575,0,0.5933,0.5926,0.5915,0.5902,0.5893,0.5882,0.587,0.5866,0.5847,0.5839,0.5827,0.5819,0.5802,0.5789,0.5775,0.5765,0.5754,0.5752,0.5751,0.5756,0.5761,0.5758,0.5743,0.5752,0.5751,0.5751,0.5751,0.5751,0.5945,0.594,0.5925,0.5914,0.5903,0.5892,0.5886,0.5873,0.5863,0.5848,0.5839,0.5827,0.5812,0.5791,0.5782,0.5773,0.5768,0.5768,0.5768,0.5768,0.5769,0.5763,0.577,0.577,0.577,0.577,0.577,0,0.5957,0.5946,0.5936,0.592,0.5911,0.5902,0.5888,0.5881,0.5871,0.5859,0.5848,0.5834,0.5822,0.5806,0.5793,0.5788,0.5783,0.5785,0.5785,0.5783,0.5774,0.5775,0.579,0.579,0.579,0.579,0.579,0.579,0.5962,0.5954,0.5944,0.593,0.5919,0.5908,0.5901,0.5891,0.588,0.5866,0.5856,0.5845,0.5831,0.5817,0.5805,0.58,0.5796,0.58,0.5794,0.5786,0.5784,0.5782,0.5783,0.5799,0.5799,0.5804,0.5804,0.5804]}]]